Wetterdaten: Sonntag, 27.12.2015
Datum Zeit Temp. A. Feuchte A. Luftdruck Regen Wind Richtung Richtung Sonnenschein ET UV Solar Taupunkt Windchill Windben Empfang
27.12.2015 00:00 0,3 C 96 % 1031,7 hPa 0,0 l/m 2,4 km/h (1 Bft) SO 138 0 min 0,000 mm 0,0 UV-I 0 W/m -0,3 C 0,3 C 4,8 km/h (1 Bft) 96,61 %
27.12.2015 00:05 0,2 C 97 % 1031,7 hPa 0,0 l/m 4,3 km/h (1 Bft) S 177 0 min 0,000 mm 0,0 UV-I 0 W/m -0,2 C 0,2 C 6,4 km/h (2 Bft) 99,07 %
27.12.2015 00:10 0,2 C 97 % 1031,7 hPa 0,0 l/m 3,9 km/h (1 Bft) S 180 0 min 0,000 mm 0,0 UV-I 0 W/m -0,2 C 0,2 C 4,8 km/h (1 Bft) 100,00 %
27.12.2015 00:15 0,2 C 97 % 1031,6 hPa 0,0 l/m 3,8 km/h (1 Bft) S 180 0 min 0,000 mm 0,0 UV-I 0 W/m -0,2 C 0,2 C 4,8 km/h (1 Bft) 100,00 %
27.12.2015 00:20 0,2 C 97 % 1031,7 hPa 0,0 l/m 5,2 km/h (1 Bft) S 173 0 min 0,000 mm 0,0 UV-I 0 W/m -0,2 C 0,2 C 8,0 km/h (2 Bft) 99,17 %
27.12.2015 00:25 0,4 C 97 % 1031,6 hPa 0,0 l/m 4,3 km/h (1 Bft) S 175 0 min 0,000 mm 0,0 UV-I 0 W/m -0,0 C 0,4 C 4,8 km/h (1 Bft) 98,31 %
27.12.2015 00:30 0,4 C 97 % 1031,6 hPa 0,0 l/m 4,6 km/h (1 Bft) S 180 0 min 0,000 mm 0,0 UV-I 0 W/m -0,0 C 0,4 C 6,4 km/h (2 Bft) 97,50 %
27.12.2015 00:35 0,4 C 97 % 1031,6 hPa 0,0 l/m 5,3 km/h (1 Bft) S 189 0 min 0,000 mm 0,0 UV-I 0 W/m -0,0 C 0,4 C 6,4 km/h (2 Bft) 97,25 %
27.12.2015 00:40 0,3 C 97 % 1031,6 hPa 0,0 l/m 6,0 km/h (2 Bft) S-SW 198 0 min 0,000 mm 0,0 UV-I 0 W/m -0,1 C 0,3 C 8,0 km/h (2 Bft) 96,61 %
27.12.2015 00:45 0,3 C 97 % 1031,5 hPa 0,0 l/m 7,4 km/h (2 Bft) S 190 0 min 0,000 mm 0,0 UV-I 0 W/m -0,1 C -0,7 C 9,7 km/h (2 Bft) 97,44 %
27.12.2015 00:50 0,5 C 97 % 1031,5 hPa 0,0 l/m 7,2 km/h (2 Bft) S 190 0 min 0,000 mm 0,0 UV-I 0 W/m 0,1 C -0,3 C 9,7 km/h (2 Bft) 98,31 %
27.12.2015 00:55 0,7 C 97 % 1031,5 hPa 0,0 l/m 6,9 km/h (2 Bft) S 190 0 min 0,000 mm 0,0 UV-I 0 W/m 0,3 C 0,2 C 8,0 km/h (2 Bft) 94,02 %
27.12.2015 01:00 0,9 C 96 % 1031,5 hPa 0,0 l/m 6,8 km/h (2 Bft) S 189 0 min 0,000 mm 0,0 UV-I 0 W/m 0,3 C 0,5 C 8,0 km/h (2 Bft) 95,97 %
27.12.2015 01:05 0,9 C 96 % 1031,5 hPa 0,0 l/m 6,0 km/h (2 Bft) S 188 0 min 0,000 mm 0,0 UV-I 0 W/m 0,3 C 0,9 C 8,0 km/h (2 Bft) 100,00 %
27.12.2015 01:10 0,9 C 95 % 1031,5 hPa 0,0 l/m 3,1 km/h (1 Bft) S-SW 193 0 min 0,000 mm 0,0 UV-I 0 W/m 0,2 C 0,9 C 6,4 km/h (2 Bft) 98,15 %
27.12.2015 01:15 0,8 C 95 % 1031,5 hPa 0,0 l/m 1,5 km/h (1 Bft) S-SW 193 0 min 0,000 mm 0,0 UV-I 0 W/m 0,1 C 0,8 C 3,2 km/h (1 Bft) 99,15 %
27.12.2015 01:20 0,7 C 95 % 1031,5 hPa 0,0 l/m 1,7 km/h (1 Bft) S-SW 193 0 min 0,000 mm 0,0 UV-I 0 W/m -0,0 C 0,7 C 3,2 km/h (1 Bft) 100,00 %
27.12.2015 01:25 0,6 C 95 % 1031,4 hPa 0,0 l/m 3,0 km/h (1 Bft) S-SW 194 0 min 0,000 mm 0,0 UV-I 0 W/m -0,1 C 0,6 C 4,8 km/h (1 Bft) 99,15 %
27.12.2015 01:30 0,5 C 95 % 1031,4 hPa 0,0 l/m 3,3 km/h (1 Bft) S-SW 194 0 min 0,000 mm 0,0 UV-I 0 W/m -0,2 C 0,5 C 4,8 km/h (1 Bft) 99,08 %
27.12.2015 01:35 0,4 C 95 % 1031,5 hPa 0,0 l/m 2,4 km/h (1 Bft) S-SW 194 0 min 0,000 mm 0,0 UV-I 0 W/m -0,3 C 0,4 C 3,2 km/h (1 Bft) 99,19 %
27.12.2015 01:40 0,3 C 95 % 1031,5 hPa 0,0 l/m 2,3 km/h (1 Bft) S-SW 194 0 min 0,000 mm 0,0 UV-I 0 W/m -0,4 C 0,3 C 3,2 km/h (1 Bft) 99,15 %
27.12.2015 01:45 0,3 C 96 % 1031,5 hPa 0,0 l/m 1,7 km/h (1 Bft) S-SW 194 0 min 0,000 mm 0,0 UV-I 0 W/m -0,3 C 0,3 C 3,2 km/h (1 Bft) 100,00 %
27.12.2015 01:50 0,3 C 96 % 1031,5 hPa 0,0 l/m 1,0 km/h (0 Bft) S-SW 194 0 min 0,000 mm 0,0 UV-I 0 W/m -0,3 C 0,3 C 3,2 km/h (1 Bft) 99,10 %
27.12.2015 01:55 0,2 C 96 % 1031,5 hPa 0,0 l/m 0,0 km/h (0 Bft) S-SW 194 0 min 0,000 mm 0,0 UV-I 0 W/m -0,4 C 0,2 C 0,0 km/h (0 Bft) 100,00 %
27.12.2015 02:00 0,1 C 96 % 1031,5 hPa 0,0 l/m 0,7 km/h (0 Bft) S-SW 194 0 min 0,000 mm 0,0 UV-I 0 W/m -0,5 C 0,1 C 1,6 km/h (1 Bft) 99,17 %
27.12.2015 02:05 0,3 C 96 % 1031,5 hPa 0,0 l/m 0,0 km/h (0 Bft) S-SW 194 0 min 0,000 mm 0,0 UV-I 0 W/m -0,3 C 0,3 C 1,6 km/h (1 Bft) 99,15 %
27.12.2015 02:10 0,4 C 97 % 1031,6 hPa 0,0 l/m 0,2 km/h (0 Bft) S-SW 194 0 min 0,000 mm 0,0 UV-I 0 W/m -0,0 C 0,4 C 1,6 km/h (1 Bft) 100,00 %
27.12.2015 02:15 0,3 C 96 % 1031,5 hPa 0,0 l/m 0,0 km/h (0 Bft) S-SW 194 0 min 0,000 mm 0,0 UV-I 0 W/m -0,3 C 0,3 C 1,6 km/h (1 Bft) 99,15 %
27.12.2015 02:20 0,2 C 96 % 1031,6 hPa 0,0 l/m 1,6 km/h (1 Bft) S-SW 194 0 min 0,000 mm 0,0 UV-I 0 W/m -0,4 C 0,2 C 3,2 km/h (1 Bft) 99,08 %
27.12.2015 02:25 -0,3 C 95 % 1031,6 hPa 0,0 l/m 2,5 km/h (1 Bft) S-SW 194 0 min 0,000 mm 0,0 UV-I 0 W/m -1,0 C -0,3 C 4,8 km/h (1 Bft) 95,93 %
27.12.2015 02:30 -0,5 C 96 % 1031,6 hPa 0,0 l/m 3,8 km/h (1 Bft) S-SW 194 0 min 0,000 mm 0,0 UV-I 0 W/m -1,1 C -0,5 C 4,8 km/h (1 Bft) 99,10 %
27.12.2015 02:35 -0,4 C 97 % 1031,6 hPa 0,0 l/m 3,3 km/h (1 Bft) S-SW 194 0 min 0,000 mm 0,0 UV-I 0 W/m -0,8 C -0,4 C 4,8 km/h (1 Bft) 99,17 %
27.12.2015 02:40 -0,4 C 97 % 1031,5 hPa 0,0 l/m 3,3 km/h (1 Bft) S-SW 192 0 min 0,000 mm 0,0 UV-I 0 W/m -0,8 C -0,4 C 4,8 km/h (1 Bft) 96,61 %
27.12.2015 02:45 -0,2 C 97 % 1031,6 hPa 0,0 l/m 2,3 km/h (1 Bft) S-SW 193 0 min 0,000 mm 0,0 UV-I 0 W/m -0,6 C -0,2 C 3,2 km/h (1 Bft) 95,73 %
27.12.2015 02:50 -0,1 C 97 % 1031,6 hPa 0,0 l/m 1,7 km/h (1 Bft) S-SW 193 0 min 0,000 mm 0,0 UV-I 0 W/m -0,5 C -0,1 C 3,2 km/h (1 Bft) 97,52 %
27.12.2015 02:55 0,0 C 97 % 1031,6 hPa 0,0 l/m 1,4 km/h (1 Bft) S-SW 193 0 min 0,000 mm 0,0 UV-I 0 W/m -0,4 C 0,0 C 3,2 km/h (1 Bft) 97,44 %
27.12.2015 03:00 0,0 C 97 % 1031,6 hPa 0,0 l/m 1,5 km/h (1 Bft) S-SW 193 0 min 0,000 mm 0,0 UV-I 0 W/m -0,4 C 0,0 C 3,2 km/h (1 Bft) 96,33 %
27.12.2015 03:05 -0,1 C 96 % 1031,6 hPa 0,0 l/m 2,5 km/h (1 Bft) S-SW 193 0 min 0,000 mm 0,0 UV-I 0 W/m -0,7 C -0,1 C 4,8 km/h (1 Bft) 97,52 %
27.12.2015 03:10 -0,2 C 96 % 1031,6 hPa 0,0 l/m 2,0 km/h (1 Bft) S 190 0 min 0,000 mm 0,0 UV-I 0 W/m -0,8 C -0,2 C 4,8 km/h (1 Bft) 97,50 %
27.12.2015 03:15 -0,1 C 96 % 1031,6 hPa 0,0 l/m 0,5 km/h (0 Bft) S 188 0 min 0,000 mm 0,0 UV-I 0 W/m -0,7 C -0,1 C 1,6 km/h (1 Bft) 98,35 %
27.12.2015 03:20 0,0 C 96 % 1031,6 hPa 0,0 l/m 0,4 km/h (0 Bft) S 188 0 min 0,000 mm 0,0 UV-I 0 W/m -0,6 C 0,0 C 1,6 km/h (1 Bft) 98,29 %
27.12.2015 03:25 0,3 C 97 % 1031,6 hPa 0,0 l/m 0,3 km/h (0 Bft) S 188 0 min 0,000 mm 0,0 UV-I 0 W/m -0,1 C 0,3 C 1,6 km/h (1 Bft) 98,11 %
27.12.2015 03:30 0,2 C 96 % 1031,7 hPa 0,0 l/m 0,1 km/h (0 Bft) S 188 0 min 0,000 mm 0,0 UV-I 0 W/m -0,4 C 0,2 C 1,6 km/h (1 Bft) 97,46 %
27.12.2015 03:35 0,3 C 96 % 1031,7 hPa 0,0 l/m 0,6 km/h (0 Bft) S 188 0 min 0,000 mm 0,0 UV-I 0 W/m -0,3 C 0,3 C 3,2 km/h (1 Bft) 100,00 %
27.12.2015 03:40 -0,2 C 95 % 1031,7 hPa 0,0 l/m 0,2 km/h (0 Bft) S 188 0 min 0,000 mm 0,0 UV-I 0 W/m -0,9 C -0,2 C 1,6 km/h (1 Bft) 100,00 %
27.12.2015 03:45 -0,4 C 96 % 1031,6 hPa 0,0 l/m 0,3 km/h (0 Bft) S 188 0 min 0,000 mm 0,0 UV-I 0 W/m -1,0 C -0,4 C 1,6 km/h (1 Bft) 99,15 %
27.12.2015 03:50 -0,5 C 96 % 1031,7 hPa 0,0 l/m 0,4 km/h (0 Bft) S 188 0 min 0,000 mm 0,0 UV-I 0 W/m -1,1 C -0,5 C 1,6 km/h (1 Bft) 97,44 %
27.12.2015 03:55 -0,7 C 96 % 1031,7 hPa 0,0 l/m 0,3 km/h (0 Bft) S 188 0 min 0,000 mm 0,0 UV-I 0 W/m -1,3 C -0,7 C 1,6 km/h (1 Bft) 99,15 %
27.12.2015 04:00 -0,7 C 97 % 1031,7 hPa 0,0 l/m 0,0 km/h (0 Bft) S 188 0 min 0,000 mm 0,0 UV-I 0 W/m -1,1 C -0,7 C 1,6 km/h (1 Bft) 98,31 %
27.12.2015 04:05 -0,7 C 97 % 1031,6 hPa 0,0 l/m 1,1 km/h (1 Bft) S 188 0 min 0,000 mm 0,0 UV-I 0 W/m -1,1 C -0,7 C 1,6 km/h (1 Bft) 100,00 %
27.12.2015 04:10 -0,8 C 97 % 1031,6 hPa 0,0 l/m 0,8 km/h (0 Bft) S 188 0 min 0,000 mm 0,0 UV-I 0 W/m -1,2 C -0,8 C 1,6 km/h (1 Bft) 100,00 %
27.12.2015 04:15 -0,9 C 97 % 1031,5 hPa 0,0 l/m 0,3 km/h (0 Bft) S 188 0 min 0,000 mm 0,0 UV-I 0 W/m -1,3 C -0,9 C 1,6 km/h (1 Bft) 97,32 %
27.12.2015 04:20 -0,7 C 97 % 1031,5 hPa 0,0 l/m 1,5 km/h (1 Bft) S 188 0 min 0,000 mm 0,0 UV-I 0 W/m -1,1 C -0,7 C 3,2 km/h (1 Bft) 99,17 %
27.12.2015 04:25 -0,4 C 97 % 1031,4 hPa 0,0 l/m 0,9 km/h (0 Bft) S 188 0 min 0,000 mm 0,0 UV-I 0 W/m -0,8 C -0,4 C 3,2 km/h (1 Bft) 98,23 %
27.12.2015 04:30 -0,4 C 97 % 1031,4 hPa 0,0 l/m 0,7 km/h (0 Bft) S 188 0 min 0,000 mm 0,0 UV-I 0 W/m -0,8 C -0,4 C 1,6 km/h (1 Bft) 97,54 %
27.12.2015 04:35 -0,7 C 97 % 1031,4 hPa 0,0 l/m 1,1 km/h (1 Bft) S 188 0 min 0,000 mm 0,0 UV-I 0 W/m -1,1 C -0,7 C 1,6 km/h (1 Bft) 99,09 %
27.12.2015 04:40 -0,9 C 97 % 1031,5 hPa 0,0 l/m 1,2 km/h (1 Bft) S 188 0 min 0,000 mm 0,0 UV-I 0 W/m -1,3 C -0,9 C 1,6 km/h (1 Bft) 99,19 %
27.12.2015 04:45 -0,9 C 97 % 1031,4 hPa 0,0 l/m 1,6 km/h (1 Bft) S 188 0 min 0,000 mm 0,0 UV-I 0 W/m -1,3 C -0,9 C 3,2 km/h (1 Bft) 99,15 %
27.12.2015 04:50 -1,1 C 97 % 1031,5 hPa 0,0 l/m 2,2 km/h (1 Bft) S 188 0 min 0,000 mm 0,0 UV-I 0 W/m -1,5 C -1,1 C 3,2 km/h (1 Bft) 97,52 %
27.12.2015 04:55 -1,2 C 97 % 1031,5 hPa 0,0 l/m 1,3 km/h (1 Bft) S 188 0 min 0,000 mm 0,0 UV-I 0 W/m -1,6 C -1,2 C 3,2 km/h (1 Bft) 96,58 %
27.12.2015 05:00 -0,9 C 97 % 1031,5 hPa 0,0 l/m 1,5 km/h (1 Bft) S 188 0 min 0,000 mm 0,0 UV-I 0 W/m -1,3 C -0,9 C 3,2 km/h (1 Bft) 95,28 %
27.12.2015 05:05 -0,7 C 97 % 1031,5 hPa 0,0 l/m 1,1 km/h (1 Bft) S 188 0 min 0,000 mm 0,0 UV-I 0 W/m -1,1 C -0,7 C 3,2 km/h (1 Bft) 96,77 %
27.12.2015 05:10 -0,7 C 97 % 1031,6 hPa 0,0 l/m 0,3 km/h (0 Bft) S 188 0 min 0,000 mm 0,0 UV-I 0 W/m -1,1 C -0,7 C 1,6 km/h (1 Bft) 97,50 %
27.12.2015 05:15 -0,7 C 97 % 1031,7 hPa 0,0 l/m 0,0 km/h (0 Bft) S 188 0 min 0,000 mm 0,0 UV-I 0 W/m -1,1 C -0,7 C 1,6 km/h (1 Bft) 97,25 %
27.12.2015 05:20 -0,6 C 97 % 1031,7 hPa 0,0 l/m 0,0 km/h (0 Bft) S 188 0 min 0,000 mm 0,0 UV-I 0 W/m -1,0 C -0,6 C 0,0 km/h (0 Bft) 95,76 %
27.12.2015 05:25 -0,7 C 97 % 1031,8 hPa 0,0 l/m 0,1 km/h (0 Bft) S 188 0 min 0,000 mm 0,0 UV-I 0 W/m -1,1 C -0,7 C 1,6 km/h (1 Bft) 97,44 %
27.12.2015 05:30 -0,6 C 97 % 1031,9 hPa 0,0 l/m 1,1 km/h (1 Bft) S 185 0 min 0,000 mm 0,0 UV-I 0 W/m -1,0 C -0,6 C 3,2 km/h (1 Bft) 97,52 %
27.12.2015 05:35 -0,2 C 98 % 1031,9 hPa 0,0 l/m 2,2 km/h (1 Bft) S-SO 148 0 min 0,000 mm 0,0 UV-I 0 W/m -0,5 C -0,2 C 3,2 km/h (1 Bft) 98,97 %
27.12.2015 05:40 -0,4 C 97 % 1031,8 hPa 0,0 l/m 1,6 km/h (1 Bft) S-SO 148 0 min 0,000 mm 0,0 UV-I 0 W/m -0,8 C -0,4 C 3,2 km/h (1 Bft) 98,48 %
27.12.2015 05:45 -0,6 C 97 % 1031,9 hPa 0,0 l/m 0,0 km/h (0 Bft) S-SO 148 0 min 0,000 mm 0,0 UV-I 0 W/m -1,0 C -0,6 C 0,0 km/h (0 Bft) 99,15 %
27.12.2015 05:50 -0,8 C 97 % 1031,9 hPa 0,0 l/m 0,9 km/h (0 Bft) S-SO 148 0 min 0,000 mm 0,0 UV-I 0 W/m -1,2 C -0,8 C 1,6 km/h (1 Bft) 98,29 %
27.12.2015 05:55 -0,9 C 97 % 1031,9 hPa 0,0 l/m 0,7 km/h (0 Bft) S-SO 148 0 min 0,000 mm 0,0 UV-I 0 W/m -1,3 C -0,9 C 1,6 km/h (1 Bft) 99,15 %
27.12.2015 06:00 -1,2 C 97 % 1031,9 hPa 0,0 l/m 0,6 km/h (0 Bft) S-SO 148 0 min 0,000 mm 0,0 UV-I 0 W/m -1,6 C -1,2 C 1,6 km/h (1 Bft) 99,15 %
27.12.2015 06:05 -1,2 C 97 % 1031,9 hPa 0,0 l/m 0,7 km/h (0 Bft) S-SO 148 0 min 0,000 mm 0,0 UV-I 0 W/m -1,6 C -1,2 C 1,6 km/h (1 Bft) 99,19 %
27.12.2015 06:10 -1,3 C 97 % 1031,9 hPa 0,0 l/m 0,9 km/h (0 Bft) S-SO 148 0 min 0,000 mm 0,0 UV-I 0 W/m -1,7 C -1,3 C 3,2 km/h (1 Bft) 98,17 %
27.12.2015 06:15 -1,3 C 97 % 1031,9 hPa 0,0 l/m 3,3 km/h (1 Bft) S-SO 148 0 min 0,000 mm 0,0 UV-I 0 W/m -1,7 C -1,3 C 4,8 km/h (1 Bft) 100,00 %
27.12.2015 06:20 -1,2 C 97 % 1032,0 hPa 0,0 l/m 1,6 km/h (1 Bft) S-SO 148 0 min 0,000 mm 0,0 UV-I 0 W/m -1,6 C -1,2 C 4,8 km/h (1 Bft) 100,00 %
27.12.2015 06:25 -1,2 C 97 % 1032,0 hPa 0,0 l/m 0,2 km/h (0 Bft) S-SO 148 0 min 0,000 mm 0,0 UV-I 0 W/m -1,6 C -1,2 C 1,6 km/h (1 Bft) 99,15 %
27.12.2015 06:30 -1,3 C 97 % 1032,0 hPa 0,0 l/m 0,5 km/h (0 Bft) S-SO 148 0 min 0,000 mm 0,0 UV-I 0 W/m -1,7 C -1,3 C 1,6 km/h (1 Bft) 99,15 %
27.12.2015 06:35 -1,1 C 97 % 1032,1 hPa 0,0 l/m 1,1 km/h (1 Bft) S-SO 148 0 min 0,000 mm 0,0 UV-I 0 W/m -1,5 C -1,1 C 3,2 km/h (1 Bft) 100,00 %
27.12.2015 06:40 -0,8 C 98 % 1032,1 hPa 0,0 l/m 0,6 km/h (0 Bft) S-SO 148 0 min 0,000 mm 0,0 UV-I 0 W/m -1,1 C -0,8 C 3,2 km/h (1 Bft) 99,15 %
27.12.2015 06:45 -0,8 C 98 % 1032,2 hPa 0,0 l/m 0,3 km/h (0 Bft) S-SO 148 0 min 0,000 mm 0,0 UV-I 0 W/m -1,1 C -0,8 C 1,6 km/h (1 Bft) 100,00 %
27.12.2015 06:50 -1,2 C 97 % 1032,2 hPa 0,0 l/m 1,4 km/h (1 Bft) S-SO 148 0 min 0,000 mm 0,0 UV-I 0 W/m -1,6 C -1,2 C 3,2 km/h (1 Bft) 98,11 %
27.12.2015 06:55 -1,2 C 97 % 1032,1 hPa 0,0 l/m 1,0 km/h (0 Bft) S-SO 148 0 min 0,000 mm 0,0 UV-I 0 W/m -1,6 C -1,2 C 3,2 km/h (1 Bft) 99,15 %
27.12.2015 07:00 -1,2 C 97 % 1032,1 hPa 0,0 l/m 1,0 km/h (0 Bft) S-SO 150 0 min 0,000 mm 0,0 UV-I 0 W/m -1,6 C -1,2 C 3,2 km/h (1 Bft) 98,39 %
27.12.2015 07:05 -1,2 C 97 % 1032,1 hPa 0,0 l/m 3,6 km/h (1 Bft) S-SO 157 0 min 0,000 mm 0,0 UV-I 0 W/m -1,6 C -1,2 C 4,8 km/h (1 Bft) 95,76 %
27.12.2015 07:10 -1,2 C 97 % 1032,1 hPa 0,0 l/m 2,3 km/h (1 Bft) S-SO 157 0 min 0,000 mm 0,0 UV-I 0 W/m -1,6 C -1,2 C 4,8 km/h (1 Bft) 98,33 %
27.12.2015 07:15 -1,4 C 97 % 1032,2 hPa 0,0 l/m 1,7 km/h (1 Bft) S-SO 157 0 min 0,000 mm 0,0 UV-I 0 W/m -1,8 C -1,4 C 3,2 km/h (1 Bft) 96,33 %
27.12.2015 07:20 -1,4 C 97 % 1032,2 hPa 0,0 l/m 1,3 km/h (1 Bft) S-SO 157 0 min 0,000 mm 0,0 UV-I 0 W/m -1,8 C -1,4 C 3,2 km/h (1 Bft) 97,46 %
27.12.2015 07:25 -1,3 C 97 % 1032,3 hPa 0,0 l/m 0,5 km/h (0 Bft) S-SO 157 0 min 0,000 mm 0,0 UV-I 0 W/m -1,7 C -1,3 C 1,6 km/h (1 Bft) 95,73 %
27.12.2015 07:30 -1,1 C 97 % 1032,4 hPa 0,0 l/m 0,1 km/h (0 Bft) S-SO 157 0 min 0,000 mm 0,0 UV-I 0 W/m -1,5 C -1,1 C 1,6 km/h (1 Bft) 95,87 %
27.12.2015 07:35 -1,2 C 97 % 1032,3 hPa 0,0 l/m 1,3 km/h (1 Bft) S-SO 159 0 min 0,000 mm 0,0 UV-I 0 W/m -1,6 C -1,2 C 3,2 km/h (1 Bft) 97,44 %
27.12.2015 07:40 -1,0 C 97 % 1032,4 hPa 0,0 l/m 0,8 km/h (0 Bft) S-SO 159 0 min 0,000 mm 0,0 UV-I 0 W/m -1,4 C -1,0 C 3,2 km/h (1 Bft) 99,15 %
27.12.2015 07:45 -1,5 C 96 % 1032,4 hPa 0,0 l/m 0,9 km/h (0 Bft) S-SO 159 0 min 0,000 mm 0,0 UV-I 0 W/m -2,1 C -1,5 C 3,2 km/h (1 Bft) 96,43 %
27.12.2015 07:50 -1,7 C 97 % 1032,3 hPa 0,0 l/m 0,4 km/h (0 Bft) S-SO 159 0 min 0,000 mm 0,0 UV-I 3 W/m -2,1 C -1,7 C 1,6 km/h (1 Bft) 98,29 %
27.12.2015 07:55 -1,6 C 97 % 1032,3 hPa 0,0 l/m 1,2 km/h (1 Bft) O-NO 68 0 min 0,000 mm 0,0 UV-I 5 W/m -2,0 C -1,6 C 3,2 km/h (1 Bft) 99,15 %
27.12.2015 08:00 -1,5 C 97 % 1032,4 hPa 0,0 l/m 2,9 km/h (1 Bft) NO 42 0 min 0,000 mm 0,0 UV-I 7 W/m -1,9 C -1,5 C 4,8 km/h (1 Bft) 99,17 %
27.12.2015 08:05 -1,5 C 97 % 1032,5 hPa 0,0 l/m 1,9 km/h (1 Bft) NO 42 0 min 0,000 mm 0,0 UV-I 9 W/m -1,9 C -1,5 C 3,2 km/h (1 Bft) 98,31 %
27.12.2015 08:10 -1,6 C 97 % 1032,5 hPa 0,0 l/m 1,8 km/h (1 Bft) NO 42 0 min 0,000 mm 0,0 UV-I 11 W/m -2,0 C -1,6 C 3,2 km/h (1 Bft) 100,00 %
27.12.2015 08:15 -1,7 C 97 % 1032,6 hPa 0,0 l/m 2,1 km/h (1 Bft) NO 42 0 min 0,000 mm 0,0 UV-I 12 W/m -2,1 C -1,7 C 3,2 km/h (1 Bft) 100,00 %
27.12.2015 08:20 -1,7 C 97 % 1032,6 hPa 0,0 l/m 0,7 km/h (0 Bft) O-NO 66 0 min 0,000 mm 0,0 UV-I 14 W/m -2,1 C -1,7 C 3,2 km/h (1 Bft) 99,15 %
27.12.2015 08:25 -1,7 C 97 % 1032,6 hPa 0,0 l/m 1,1 km/h (1 Bft) O-SO 110 0 min 0,000 mm 0,0 UV-I 15 W/m -2,1 C -1,7 C 3,2 km/h (1 Bft) 97,46 %
27.12.2015 08:30 -1,8 C 97 % 1032,7 hPa 0,0 l/m 1,0 km/h (0 Bft) O-SO 110 0 min 0,000 mm 0,0 UV-I 18 W/m -2,2 C -1,8 C 3,2 km/h (1 Bft) 99,19 %
27.12.2015 08:35 -2,1 C 97 % 1032,8 hPa 0,0 l/m 0,0 km/h (0 Bft) O-SO 110 0 min 0,000 mm 0,0 UV-I 28 W/m -2,5 C -2,1 C 1,6 km/h (1 Bft) 100,00 %
27.12.2015 08:40 -2,0 C 97 % 1032,7 hPa 0,0 l/m 0,0 km/h (0 Bft) O-SO 110 0 min 0,000 mm 0,0 UV-I 41 W/m -2,4 C -2,0 C 0,0 km/h (0 Bft) 100,00 %
27.12.2015 08:45 -1,8 C 97 % 1032,7 hPa 0,0 l/m 0,0 km/h (0 Bft) O-SO 110 5 min 0,000 mm 0,0 UV-I 63 W/m -2,2 C -1,8 C 0,0 km/h (0 Bft) 99,15 %
27.12.2015 08:50 -1,6 C 97 % 1032,7 hPa 0,0 l/m 1,0 km/h (0 Bft) O-SO 110 5 min 0,000 mm 0,0 UV-I 77 W/m -2,0 C -1,6 C 3,2 km/h (1 Bft) 100,00 %
27.12.2015 08:55 -1,4 C 97 % 1032,8 hPa 0,0 l/m 0,6 km/h (0 Bft) O-SO 110 5 min 0,000 mm 0,0 UV-I 88 W/m -1,8 C -1,4 C 1,6 km/h (1 Bft) 99,15 %
27.12.2015 09:00 -1,4 C 97 % 1032,7 hPa 0,0 l/m 0,4 km/h (0 Bft) O-SO 110 5 min 0,000 mm 0,0 UV-I 98 W/m -1,8 C -1,4 C 1,6 km/h (1 Bft) 97,52 %
27.12.2015 09:05 -1,4 C 97 % 1032,7 hPa 0,0 l/m 0,1 km/h (0 Bft) O-SO 110 5 min 0,000 mm 0,0 UV-I 107 W/m -1,8 C -1,4 C 1,6 km/h (1 Bft) 100,00 %
27.12.2015 09:10 -1,3 C 97 % 1032,8 hPa 0,0 l/m 0,4 km/h (0 Bft) O-SO 110 5 min 0,000 mm 0,0 UV-I 114 W/m -1,7 C -1,3 C 1,6 km/h (1 Bft) 96,58 %
27.12.2015 09:15 -1,2 C 97 % 1032,9 hPa 0,0 l/m 1,4 km/h (1 Bft) NO 55 5 min 0,000 mm 0,0 UV-I 111 W/m -1,6 C -1,2 C 4,8 km/h (1 Bft) 94,92 %
27.12.2015 09:20 -1,2 C 97 % 1032,8 hPa 0,0 l/m 2,8 km/h (1 Bft) NO 55 5 min 0,000 mm 0,0 UV-I 102 W/m -1,6 C -1,2 C 4,8 km/h (1 Bft) 97,25 %
27.12.2015 09:25 -1,1 C 97 % 1032,8 hPa 0,0 l/m 3,1 km/h (1 Bft) NO 53 5 min 0,000 mm 0,0 UV-I 111 W/m -1,5 C -1,1 C 4,8 km/h (1 Bft) 96,58 %
27.12.2015 09:30 -0,8 C 97 % 1032,8 hPa 0,0 l/m 3,0 km/h (1 Bft) NO 53 5 min 0,000 mm 0,0 UV-I 119 W/m -1,2 C -0,8 C 4,8 km/h (1 Bft) 98,31 %
27.12.2015 09:35 -0,6 C 97 % 1032,8 hPa 0,0 l/m 4,0 km/h (1 Bft) NO 54 5 min 0,000 mm 0,0 UV-I 143 W/m -1,0 C -0,6 C 4,8 km/h (1 Bft) 96,58 %
27.12.2015 09:40 -0,6 C 97 % 1032,8 hPa 0,0 l/m 2,6 km/h (1 Bft) NO 54 5 min 0,000 mm 0,0 UV-I 147 W/m -1,0 C -0,6 C 4,8 km/h (1 Bft) 96,61 %
27.12.2015 09:45 -0,6 C 97 % 1032,8 hPa 0,2 l/m 0,7 km/h (0 Bft) NO 54 5 min 0,000 mm 0,0 UV-I 165 W/m -1,0 C -0,6 C 3,2 km/h (1 Bft) 100,00 %
27.12.2015 09:50 -0,4 C 97 % 1032,9 hPa 0,0 l/m 1,5 km/h (1 Bft) NO 54 5 min 0,000 mm 0,0 UV-I 177 W/m -0,8 C -0,4 C 3,2 km/h (1 Bft) 96,58 %
27.12.2015 09:55 -0,2 C 97 % 1032,9 hPa 0,0 l/m 1,8 km/h (1 Bft) NO 54 5 min 0,000 mm 0,0 UV-I 190 W/m -0,6 C -0,2 C 3,2 km/h (1 Bft) 98,31 %
27.12.2015 10:00 -0,1 C 97 % 1033,0 hPa 0,0 l/m 1,8 km/h (1 Bft) NO 54 5 min 0,051 mm 0,0 UV-I 194 W/m -0,5 C -0,1 C 3,2 km/h (1 Bft) 99,17 %
27.12.2015 10:05 -0,1 C 97 % 1032,9 hPa 0,0 l/m 1,0 km/h (0 Bft) NO 54 5 min 0,000 mm 0,0 UV-I 200 W/m -0,5 C -0,1 C 3,2 km/h (1 Bft) 99,15 %
27.12.2015 10:10 0,1 C 97 % 1032,9 hPa 0,0 l/m 2,2 km/h (1 Bft) NO 54 5 min 0,000 mm 0,0 UV-I 208 W/m -0,3 C 0,1 C 3,2 km/h (1 Bft) 98,21 %
27.12.2015 10:15 0,3 C 97 % 1032,8 hPa 0,0 l/m 4,1 km/h (1 Bft) O-NO 78 5 min 0,000 mm 0,0 UV-I 213 W/m -0,1 C 0,3 C 6,4 km/h (2 Bft) 100,00 %
27.12.2015 10:20 0,6 C 96 % 1032,9 hPa 0,0 l/m 3,0 km/h (1 Bft) O-NO 60 5 min 0,000 mm 0,0 UV-I 228 W/m 0,0 C 0,6 C 4,8 km/h (1 Bft) 99,15 %
27.12.2015 10:25 0,7 C 96 % 1033,0 hPa 0,0 l/m 2,2 km/h (1 Bft) NO 38 5 min 0,000 mm 0,0 UV-I 237 W/m 0,1 C 0,7 C 4,8 km/h (1 Bft) 100,00 %
27.12.2015 10:30 0,8 C 96 % 1033,1 hPa 0,0 l/m 1,7 km/h (1 Bft) N-NO 26 5 min 0,000 mm 0,0 UV-I 242 W/m 0,2 C 0,8 C 6,4 km/h (2 Bft) 100,00 %
27.12.2015 10:35 1,1 C 96 % 1033,1 hPa 0,0 l/m 0,3 km/h (0 Bft) N-NO 26 5 min 0,000 mm 0,2 UV-I 246 W/m 0,5 C 1,1 C 1,6 km/h (1 Bft) 99,15 %
27.12.2015 10:40 1,2 C 95 % 1033,1 hPa 0,0 l/m 0,0 km/h (0 Bft) N-NO 26 5 min 0,000 mm 0,5 UV-I 242 W/m 0,5 C 1,2 C 0,0 km/h (0 Bft) 98,31 %
27.12.2015 10:45 1,6 C 95 % 1033,0 hPa 0,0 l/m 0,1 km/h (0 Bft) N-NO 26 5 min 0,000 mm 0,5 UV-I 258 W/m 0,9 C 1,6 C 1,6 km/h (1 Bft) 98,29 %
27.12.2015 10:50 1,8 C 93 % 1033,0 hPa 0,0 l/m 0,2 km/h (0 Bft) N-NO 26 5 min 0,000 mm 0,5 UV-I 266 W/m 0,8 C 1,8 C 1,6 km/h (1 Bft) 100,00 %
27.12.2015 10:55 2,1 C 93 % 1032,9 hPa 0,0 l/m 0,4 km/h (0 Bft) N-NO 26 5 min 0,000 mm 0,5 UV-I 273 W/m 1,1 C 2,1 C 1,6 km/h (1 Bft) 98,29 %
27.12.2015 11:00 2,3 C 93 % 1032,9 hPa 0,0 l/m 0,1 km/h (0 Bft) N-NO 26 5 min 0,076 mm 0,5 UV-I 275 W/m 1,3 C 2,3 C 1,6 km/h (1 Bft) 98,31 %
27.12.2015 11:05 2,6 C 92 % 1032,9 hPa 0,0 l/m 0,9 km/h (0 Bft) N-NO 26 5 min 0,000 mm 0,6 UV-I 278 W/m 1,4 C 2,6 C 3,2 km/h (1 Bft) 98,31 %
27.12.2015 11:10 2,7 C 93 % 1032,9 hPa 0,0 l/m 3,5 km/h (1 Bft) N-NO 26 5 min 0,000 mm 0,6 UV-I 280 W/m 1,7 C 2,7 C 6,4 km/h (2 Bft) 96,58 %
27.12.2015 11:15 2,3 C 93 % 1032,8 hPa 0,0 l/m 6,6 km/h (2 Bft) NO 47 5 min 0,000 mm 0,6 UV-I 276 W/m 1,3 C 2,1 C 8,0 km/h (2 Bft) 96,43 %
27.12.2015 11:20 1,9 C 93 % 1032,8 hPa 0,0 l/m 5,4 km/h (1 Bft) NO 41 5 min 0,000 mm 0,6 UV-I 274 W/m 0,9 C 1,9 C 8,0 km/h (2 Bft) 96,67 %
27.12.2015 11:25 2,1 C 93 % 1032,8 hPa 0,0 l/m 3,8 km/h (1 Bft) NO 43 5 min 0,000 mm 0,6 UV-I 279 W/m 1,1 C 2,1 C 6,4 km/h (2 Bft) 97,46 %
27.12.2015 11:30 2,3 C 93 % 1032,8 hPa 0,0 l/m 4,6 km/h (1 Bft) NO 34 5 min 0,000 mm 0,6 UV-I 275 W/m 1,3 C 2,3 C 6,4 km/h (2 Bft) 99,10 %
27.12.2015 11:35 2,5 C 93 % 1032,7 hPa 0,0 l/m 3,8 km/h (1 Bft) NO 36 5 min 0,000 mm 0,6 UV-I 286 W/m 1,5 C 2,5 C 4,8 km/h (1 Bft) 98,29 %
27.12.2015 11:40 3,1 C 92 % 1032,7 hPa 0,0 l/m 3,8 km/h (1 Bft) NO 48 5 min 0,000 mm 0,6 UV-I 286 W/m 1,9 C 3,1 C 6,4 km/h (2 Bft) 99,15 %
27.12.2015 11:45 3,5 C 92 % 1032,8 hPa 0,0 l/m 3,6 km/h (1 Bft) NO 36 5 min 0,000 mm 0,6 UV-I 285 W/m 2,3 C 3,5 C 6,4 km/h (2 Bft) 100,00 %
27.12.2015 11:50 3,8 C 92 % 1032,7 hPa 0,0 l/m 4,7 km/h (1 Bft) NO 46 5 min 0,000 mm 0,6 UV-I 289 W/m 2,6 C 3,8 C 6,4 km/h (2 Bft) 100,00 %
27.12.2015 11:55 3,8 C 91 % 1032,7 hPa 0,0 l/m 2,4 km/h (1 Bft) NO 44 5 min 0,000 mm 0,7 UV-I 290 W/m 2,5 C 3,8 C 4,8 km/h (1 Bft) 99,15 %
27.12.2015 12:00 3,8 C 92 % 1032,7 hPa 0,0 l/m 1,9 km/h (1 Bft) NO 38 5 min 0,102 mm 0,7 UV-I 292 W/m 2,6 C 3,8 C 4,8 km/h (1 Bft) 98,29 %
27.12.2015 12:05 3,9 C 91 % 1032,7 hPa 0,0 l/m 1,7 km/h (1 Bft) N-NO 28 5 min 0,000 mm 0,7 UV-I 292 W/m 2,6 C 3,9 C 6,4 km/h (2 Bft) 100,00 %
27.12.2015 12:10 3,9 C 90 % 1032,6 hPa 0,0 l/m 3,2 km/h (1 Bft) NO 34 5 min 0,000 mm 0,7 UV-I 290 W/m 2,4 C 3,9 C 4,8 km/h (1 Bft) 97,46 %
27.12.2015 12:15 4,1 C 90 % 1032,6 hPa 0,0 l/m 3,2 km/h (1 Bft) NO 34 5 min 0,000 mm 0,7 UV-I 288 W/m 2,6 C 4,1 C 4,8 km/h (1 Bft) 97,17 %
27.12.2015 12:20 4,4 C 91 % 1032,6 hPa 0,0 l/m 3,4 km/h (1 Bft) N-NO 30 5 min 0,000 mm 0,7 UV-I 291 W/m 3,1 C 4,4 C 4,8 km/h (1 Bft) 95,24 %
27.12.2015 12:25 4,6 C 89 % 1032,5 hPa 0,0 l/m 2,8 km/h (1 Bft) NO 49 5 min 0,000 mm 0,6 UV-I 291 W/m 2,9 C 4,6 C 4,8 km/h (1 Bft) 96,99 %
27.12.2015 12:30 5,1 C 88 % 1032,5 hPa 0,0 l/m 2,6 km/h (1 Bft) NO 49 5 min 0,000 mm 0,6 UV-I 291 W/m 3,3 C 5,1 C 4,8 km/h (1 Bft) 96,58 %
27.12.2015 12:35 5,2 C 87 % 1032,6 hPa 0,0 l/m 2,4 km/h (1 Bft) NO 44 5 min 0,000 mm 0,6 UV-I 292 W/m 3,2 C 5,2 C 4,8 km/h (1 Bft) 97,46 %
27.12.2015 12:40 5,4 C 87 % 1032,5 hPa 0,0 l/m 1,3 km/h (1 Bft) NO 43 5 min 0,000 mm 0,6 UV-I 286 W/m 3,4 C 5,4 C 3,2 km/h (1 Bft) 98,31 %
27.12.2015 12:45 5,5 C 85 % 1032,4 hPa 0,0 l/m 1,5 km/h (1 Bft) NO 43 5 min 0,000 mm 0,6 UV-I 272 W/m 3,2 C 5,5 C 3,2 km/h (1 Bft) 100,00 %
27.12.2015 12:50 5,6 C 85 % 1032,4 hPa 0,0 l/m 0,7 km/h (0 Bft) NO 51 5 min 0,000 mm 0,6 UV-I 276 W/m 3,3 C 5,6 C 3,2 km/h (1 Bft) 99,15 %
27.12.2015 12:55 5,9 C 85 % 1032,4 hPa 0,0 l/m 2,0 km/h (1 Bft) NO 51 5 min 0,000 mm 0,6 UV-I 273 W/m 3,6 C 5,9 C 3,2 km/h (1 Bft) 100,00 %
27.12.2015 13:00 6,0 C 86 % 1032,3 hPa 0,0 l/m 2,6 km/h (1 Bft) NO 51 5 min 0,101 mm 0,6 UV-I 273 W/m 3,8 C 6,0 C 4,8 km/h (1 Bft) 99,08 %
27.12.2015 13:05 6,2 C 85 % 1032,3 hPa 0,0 l/m 2,7 km/h (1 Bft) NO 51 5 min 0,000 mm 0,6 UV-I 273 W/m 3,9 C 6,2 C 4,8 km/h (1 Bft) 100,00 %
27.12.2015 13:10 6,3 C 85 % 1032,2 hPa 0,0 l/m 1,3 km/h (1 Bft) NO 51 5 min 0,000 mm 0,6 UV-I 267 W/m 4,0 C 6,3 C 3,2 km/h (1 Bft) 100,00 %
27.12.2015 13:15 6,3 C 85 % 1032,2 hPa 0,0 l/m 0,3 km/h (0 Bft) NO 51 5 min 0,000 mm 0,5 UV-I 265 W/m 4,0 C 6,3 C 1,6 km/h (1 Bft) 100,00 %
27.12.2015 13:20 6,7 C 85 % 1032,2 hPa 0,0 l/m 1,3 km/h (1 Bft) NO 51 5 min 0,000 mm 0,5 UV-I 260 W/m 4,4 C 6,7 C 3,2 km/h (1 Bft) 100,00 %
27.12.2015 13:25 6,9 C 84 % 1032,2 hPa 0,0 l/m 0,3 km/h (0 Bft) NO 51 5 min 0,000 mm 0,5 UV-I 256 W/m 4,4 C 6,9 C 1,6 km/h (1 Bft) 99,15 %
27.12.2015 13:30 6,9 C 84 % 1032,1 hPa 0,0 l/m 0,7 km/h (0 Bft) NO 51 5 min 0,000 mm 0,5 UV-I 250 W/m 4,4 C 6,9 C 3,2 km/h (1 Bft) 99,11 %
27.12.2015 13:35 7,2 C 82 % 1032,1 hPa 0,0 l/m 1,5 km/h (1 Bft) NO 51 5 min 0,000 mm 0,5 UV-I 244 W/m 4,3 C 7,2 C 3,2 km/h (1 Bft) 96,61 %
27.12.2015 13:40 7,4 C 83 % 1032,0 hPa 0,0 l/m 1,4 km/h (1 Bft) NO 51 5 min 0,000 mm 0,5 UV-I 241 W/m 4,7 C 7,4 C 3,2 km/h (1 Bft) 97,44 %
27.12.2015 13:45 7,7 C 80 % 1032,1 hPa 0,0 l/m 2,9 km/h (1 Bft) NO 51 5 min 0,000 mm 0,4 UV-I 235 W/m 4,5 C 7,7 C 4,8 km/h (1 Bft) 96,69 %
27.12.2015 13:50 7,6 C 82 % 1032,2 hPa 0,0 l/m 4,2 km/h (1 Bft) NO 48 5 min 0,000 mm 0,0 UV-I 219 W/m 4,7 C 7,6 C 6,4 km/h (2 Bft) 97,50 %
27.12.2015 13:55 7,6 C 81 % 1032,0 hPa 0,0 l/m 2,1 km/h (1 Bft) NO 51 5 min 0,000 mm 0,0 UV-I 206 W/m 4,6 C 7,6 C 4,8 km/h (1 Bft) 100,00 %
27.12.2015 14:00 7,8 C 79 % 1032,0 hPa 0,0 l/m 1,8 km/h (1 Bft) O 93 5 min 0,102 mm 0,0 UV-I 202 W/m 4,4 C 7,8 C 3,2 km/h (1 Bft) 99,15 %
27.12.2015 14:05 8,0 C 75 % 1032,0 hPa 0,0 l/m 2,5 km/h (1 Bft) SO 135 5 min 0,000 mm 0,0 UV-I 190 W/m 3,8 C 8,0 C 8,0 km/h (2 Bft) 98,29 %
27.12.2015 14:10 8,1 C 75 % 1032,0 hPa 0,0 l/m 2,7 km/h (1 Bft) O-SO 120 5 min 0,000 mm 0,0 UV-I 190 W/m 3,9 C 8,1 C 4,8 km/h (1 Bft) 100,00 %
27.12.2015 14:15 8,1 C 74 % 1032,0 hPa 0,0 l/m 2,4 km/h (1 Bft) O-SO 120 5 min 0,000 mm 0,0 UV-I 186 W/m 3,8 C 8,1 C 4,8 km/h (1 Bft) 99,11 %
27.12.2015 14:20 8,2 C 76 % 1032,2 hPa 0,0 l/m 2,1 km/h (1 Bft) NO 56 5 min 0,000 mm 0,0 UV-I 181 W/m 4,2 C 8,2 C 4,8 km/h (1 Bft) 100,00 %
27.12.2015 14:25 8,1 C 75 % 1032,1 hPa 0,0 l/m 3,0 km/h (1 Bft) O-NO 77 5 min 0,000 mm 0,0 UV-I 166 W/m 3,9 C 8,1 C 4,8 km/h (1 Bft) 100,00 %
27.12.2015 14:30 8,1 C 75 % 1032,1 hPa 0,0 l/m 0,8 km/h (0 Bft) O-NO 77 5 min 0,000 mm 0,0 UV-I 147 W/m 3,9 C 8,1 C 3,2 km/h (1 Bft) 100,00 %
27.12.2015 14:35 8,0 C 76 % 1032,1 hPa 0,0 l/m 2,2 km/h (1 Bft) O-NO 77 5 min 0,000 mm 0,0 UV-I 137 W/m 4,0 C 8,0 C 3,2 km/h (1 Bft) 99,15 %
27.12.2015 14:40 8,0 C 76 % 1032,1 hPa 0,0 l/m 1,1 km/h (1 Bft) O-NO 77 5 min 0,000 mm 0,0 UV-I 126 W/m 4,0 C 8,0 C 3,2 km/h (1 Bft) 98,31 %
27.12.2015 14:45 8,1 C 75 % 1032,1 hPa 0,0 l/m 0,3 km/h (0 Bft) O-NO 77 5 min 0,000 mm 0,0 UV-I 114 W/m 3,9 C 8,1 C 1,6 km/h (1 Bft) 98,29 %
27.12.2015 14:50 8,2 C 77 % 1032,0 hPa 0,0 l/m 0,7 km/h (0 Bft) O-NO 77 5 min 0,000 mm 0,0 UV-I 113 W/m 4,4 C 8,2 C 3,2 km/h (1 Bft) 99,15 %
27.12.2015 14:55 8,2 C 76 % 1032,1 hPa 0,0 l/m 1,1 km/h (1 Bft) O-NO 77 5 min 0,000 mm 0,0 UV-I 110 W/m 4,2 C 8,2 C 3,2 km/h (1 Bft) 97,50 %
27.12.2015 15:00 7,9 C 76 % 1032,2 hPa 0,0 l/m 0,1 km/h (0 Bft) O-NO 77 5 min 0,076 mm 0,0 UV-I 104 W/m 3,9 C 7,9 C 1,6 km/h (1 Bft) 97,25 %
27.12.2015 15:05 8,1 C 75 % 1032,2 hPa 0,0 l/m 1,2 km/h (1 Bft) O-NO 77 5 min 0,000 mm 0,0 UV-I 97 W/m 3,9 C 8,1 C 3,2 km/h (1 Bft) 94,92 %
27.12.2015 15:10 8,1 C 75 % 1032,2 hPa 0,0 l/m 0,5 km/h (0 Bft) O-NO 77 5 min 0,000 mm 0,0 UV-I 86 W/m 3,9 C 8,1 C 1,6 km/h (1 Bft) 95,73 %
27.12.2015 15:15 8,1 C 75 % 1032,2 hPa 0,0 l/m 0,0 km/h (0 Bft) O-NO 77 5 min 0,000 mm 0,0 UV-I 82 W/m 3,9 C 8,1 C 0,0 km/h (0 Bft) 97,46 %
27.12.2015 15:20 7,8 C 76 % 1032,3 hPa 0,0 l/m 0,2 km/h (0 Bft) O-NO 77 5 min 0,000 mm 0,0 UV-I 78 W/m 3,8 C 7,8 C 1,6 km/h (1 Bft) 96,69 %
27.12.2015 15:25 7,7 C 80 % 1032,3 hPa 0,0 l/m 0,4 km/h (0 Bft) O-NO 77 5 min 0,000 mm 0,0 UV-I 70 W/m 4,5 C 7,7 C 1,6 km/h (1 Bft) 95,00 %
27.12.2015 15:30 7,6 C 76 % 1032,3 hPa 0,0 l/m 2,0 km/h (1 Bft) O-NO 77 5 min 0,000 mm 0,0 UV-I 59 W/m 3,6 C 7,6 C 3,2 km/h (1 Bft) 97,46 %
27.12.2015 15:35 7,5 C 77 % 1032,4 hPa 0,0 l/m 1,5 km/h (1 Bft) O-NO 77 5 min 0,000 mm 0,0 UV-I 51 W/m 3,7 C 7,5 C 3,2 km/h (1 Bft) 99,06 %
27.12.2015 15:40 7,1 C 81 % 1032,4 hPa 0,0 l/m 1,2 km/h (1 Bft) O-NO 76 5 min 0,000 mm 0,0 UV-I 41 W/m 4,1 C 7,1 C 4,8 km/h (1 Bft) 96,58 %
27.12.2015 15:45 6,0 C 83 % 1032,4 hPa 0,0 l/m 3,2 km/h (1 Bft) O-NO 58 5 min 0,000 mm 0,0 UV-I 32 W/m 3,3 C 6,0 C 4,8 km/h (1 Bft) 98,31 %
27.12.2015 15:50 5,3 C 86 % 1032,5 hPa 0,0 l/m 2,0 km/h (1 Bft) O-NO 58 0 min 0,000 mm 0,0 UV-I 25 W/m 3,2 C 5,3 C 4,8 km/h (1 Bft) 97,44 %
27.12.2015 15:55 5,3 C 87 % 1032,5 hPa 0,0 l/m 0,7 km/h (0 Bft) O-NO 58 5 min 0,000 mm 0,0 UV-I 20 W/m 3,3 C 5,3 C 4,8 km/h (1 Bft) 98,37 %
27.12.2015 16:00 5,2 C 86 % 1032,4 hPa 0,0 l/m 0,7 km/h (0 Bft) O-NO 77 5 min 0,025 mm 0,0 UV-I 17 W/m 3,1 C 5,2 C 3,2 km/h (1 Bft) 98,31 %
27.12.2015 16:05 4,8 C 87 % 1032,4 hPa 0,0 l/m 1,0 km/h (0 Bft) O-NO 77 0 min 0,000 mm 0,0 UV-I 13 W/m 2,8 C 4,8 C 3,2 km/h (1 Bft) 99,15 %
27.12.2015 16:10 4,7 C 89 % 1032,4 hPa 0,0 l/m 0,9 km/h (0 Bft) O-NO 77 0 min 0,000 mm 0,0 UV-I 10 W/m 3,0 C 4,7 C 3,2 km/h (1 Bft) 100,00 %
27.12.2015 16:15 4,4 C 89 % 1032,4 hPa 0,0 l/m 2,0 km/h (1 Bft) O 94 0 min 0,000 mm 0,0 UV-I 7 W/m 2,7 C 4,4 C 3,2 km/h (1 Bft) 99,15 %
27.12.2015 16:20 4,4 C 90 % 1032,4 hPa 0,0 l/m 1,5 km/h (1 Bft) SO 134 0 min 0,000 mm 0,0 UV-I 5 W/m 2,9 C 4,4 C 3,2 km/h (1 Bft) 99,15 %
27.12.2015 16:25 4,4 C 90 % 1032,4 hPa 0,0 l/m 3,8 km/h (1 Bft) S 179 0 min 0,000 mm 0,0 UV-I 5 W/m 2,9 C 4,4 C 6,4 km/h (2 Bft) 98,39 %
27.12.2015 16:30 4,2 C 90 % 1032,4 hPa 0,0 l/m 4,7 km/h (1 Bft) S 178 0 min 0,000 mm 0,0 UV-I 5 W/m 2,7 C 4,2 C 6,4 km/h (2 Bft) 98,29 %
27.12.2015 16:35 4,1 C 90 % 1032,5 hPa 0,0 l/m 3,9 km/h (1 Bft) S 178 0 min 0,000 mm 0,0 UV-I 3 W/m 2,6 C 4,1 C 4,8 km/h (1 Bft) 99,08 %
27.12.2015 16:40 4,4 C 89 % 1032,5 hPa 0,0 l/m 2,9 km/h (1 Bft) S 178 0 min 0,000 mm 0,0 UV-I 0 W/m 2,7 C 4,4 C 4,8 km/h (1 Bft) 99,15 %
27.12.2015 16:45 4,4 C 88 % 1032,5 hPa 0,0 l/m 2,1 km/h (1 Bft) S 176 0 min 0,000 mm 0,0 UV-I 0 W/m 2,6 C 4,4 C 4,8 km/h (1 Bft) 100,00 %
27.12.2015 16:50 4,3 C 88 % 1032,6 hPa 0,0 l/m 2,2 km/h (1 Bft) S 176 0 min 0,000 mm 0,0 UV-I 0 W/m 2,5 C 4,3 C 3,2 km/h (1 Bft) 99,19 %
27.12.2015 16:55 4,5 C 87 % 1032,6 hPa 0,0 l/m 2,0 km/h (1 Bft) S 176 0 min 0,000 mm 0,0 UV-I 0 W/m 2,5 C 4,5 C 4,8 km/h (1 Bft) 97,25 %
27.12.2015 17:00 4,2 C 88 % 1032,7 hPa 0,0 l/m 0,9 km/h (0 Bft) S 176 0 min 0,000 mm 0,0 UV-I 0 W/m 2,4 C 4,2 C 1,6 km/h (1 Bft) 98,33 %
27.12.2015 17:05 3,5 C 90 % 1032,7 hPa 0,0 l/m 1,1 km/h (1 Bft) S 176 0 min 0,000 mm 0,0 UV-I 0 W/m 2,0 C 3,5 C 3,2 km/h (1 Bft) 96,61 %
27.12.2015 17:10 3,5 C 91 % 1032,8 hPa 0,0 l/m 0,7 km/h (0 Bft) S 176 0 min 0,000 mm 0,0 UV-I 0 W/m 2,2 C 3,5 C 1,6 km/h (1 Bft) 97,44 %
27.12.2015 17:15 3,7 C 91 % 1032,9 hPa 0,0 l/m 0,8 km/h (0 Bft) S 176 0 min 0,000 mm 0,0 UV-I 0 W/m 2,4 C 3,7 C 1,6 km/h (1 Bft) 94,92 %
27.12.2015 17:20 3,4 C 90 % 1032,9 hPa 0,0 l/m 0,3 km/h (0 Bft) S 176 0 min 0,000 mm 0,0 UV-I 0 W/m 1,9 C 3,4 C 1,6 km/h (1 Bft) 97,46 %
27.12.2015 17:25 2,6 C 91 % 1033,0 hPa 0,0 l/m 3,9 km/h (1 Bft) NO 38 0 min 0,000 mm 0,0 UV-I 0 W/m 1,3 C 2,6 C 6,4 km/h (2 Bft) 98,29 %
27.12.2015 17:30 2,4 C 94 % 1033,0 hPa 0,0 l/m 3,9 km/h (1 Bft) NO 39 0 min 0,000 mm 0,0 UV-I 0 W/m 1,5 C 2,4 C 6,4 km/h (2 Bft) 97,46 %
27.12.2015 17:35 2,7 C 94 % 1033,0 hPa 0,0 l/m 0,6 km/h (0 Bft) NO 39 0 min 0,000 mm 0,0 UV-I 0 W/m 1,8 C 2,7 C 3,2 km/h (1 Bft) 96,58 %
27.12.2015 17:40 2,6 C 93 % 1033,0 hPa 0,0 l/m 0,0 km/h (0 Bft) NO 39 0 min 0,000 mm 0,0 UV-I 0 W/m 1,6 C 2,6 C 1,6 km/h (1 Bft) 99,11 %
27.12.2015 17:45 2,3 C 93 % 1033,0 hPa 0,0 l/m 0,0 km/h (0 Bft) NO 39 0 min 0,000 mm 0,0 UV-I 0 W/m 1,3 C 2,3 C 0,0 km/h (0 Bft) 99,17 %
27.12.2015 17:50 2,1 C 93 % 1033,1 hPa 0,0 l/m 0,9 km/h (0 Bft) NO 39 0 min 0,000 mm 0,0 UV-I 0 W/m 1,1 C 2,1 C 3,2 km/h (1 Bft) 98,29 %
27.12.2015 17:55 2,3 C 94 % 1033,2 hPa 0,0 l/m 1,0 km/h (0 Bft) NO 39 0 min 0,000 mm 0,0 UV-I 0 W/m 1,4 C 2,3 C 3,2 km/h (1 Bft) 97,50 %
27.12.2015 18:00 2,6 C 94 % 1033,0 hPa 0,0 l/m 1,2 km/h (1 Bft) NO 39 0 min 0,000 mm 0,0 UV-I 0 W/m 1,7 C 2,6 C 3,2 km/h (1 Bft) 98,31 %
27.12.2015 18:05 2,4 C 92 % 1033,0 hPa 0,0 l/m 0,1 km/h (0 Bft) NO 39 0 min 0,000 mm 0,0 UV-I 0 W/m 1,2 C 2,4 C 1,6 km/h (1 Bft) 99,07 %
27.12.2015 18:10 1,9 C 93 % 1033,1 hPa 0,0 l/m 0,8 km/h (0 Bft) NO 42 0 min 0,000 mm 0,0 UV-I 0 W/m 0,9 C 1,9 C 3,2 km/h (1 Bft) 97,46 %
27.12.2015 18:15 1,6 C 93 % 1033,1 hPa 0,0 l/m 2,2 km/h (1 Bft) NO 42 0 min 0,000 mm 0,0 UV-I 0 W/m 0,6 C 1,6 C 3,2 km/h (1 Bft) 100,00 %
27.12.2015 18:20 1,5 C 94 % 1033,1 hPa 0,0 l/m 3,7 km/h (1 Bft) S-SO 159 0 min 0,000 mm 0,0 UV-I 0 W/m 0,6 C 1,5 C 6,4 km/h (2 Bft) 100,00 %
27.12.2015 18:25 1,5 C 94 % 1033,2 hPa 0,0 l/m 3,3 km/h (1 Bft) S 176 0 min 0,000 mm 0,0 UV-I 0 W/m 0,6 C 1,5 C 6,4 km/h (2 Bft) 99,15 %
27.12.2015 18:30 1,6 C 95 % 1033,1 hPa 0,0 l/m 2,1 km/h (1 Bft) SO 144 0 min 0,000 mm 0,0 UV-I 0 W/m 0,9 C 1,6 C 4,8 km/h (1 Bft) 99,17 %
27.12.2015 18:35 1,6 C 96 % 1033,1 hPa 0,0 l/m 3,4 km/h (1 Bft) SO 144 0 min 0,000 mm 0,0 UV-I 0 W/m 1,0 C 1,6 C 4,8 km/h (1 Bft) 98,31 %
27.12.2015 18:40 1,5 C 95 % 1033,1 hPa 0,0 l/m 2,2 km/h (1 Bft) SO 144 0 min 0,000 mm 0,0 UV-I 0 W/m 0,8 C 1,5 C 3,2 km/h (1 Bft) 99,11 %
27.12.2015 18:45 1,3 C 95 % 1033,1 hPa 0,0 l/m 1,2 km/h (1 Bft) SO 144 0 min 0,000 mm 0,0 UV-I 0 W/m 0,6 C 1,3 C 3,2 km/h (1 Bft) 100,00 %
27.12.2015 18:50 1,4 C 96 % 1033,1 hPa 0,0 l/m 0,4 km/h (0 Bft) SO 144 0 min 0,000 mm 0,0 UV-I 0 W/m 0,8 C 1,4 C 1,6 km/h (1 Bft) 98,31 %
27.12.2015 18:55 1,4 C 95 % 1033,0 hPa 0,0 l/m 1,5 km/h (1 Bft) SO 144 0 min 0,000 mm 0,0 UV-I 0 W/m 0,7 C 1,4 C 3,2 km/h (1 Bft) 98,31 %
27.12.2015 19:00 1,3 C 96 % 1032,9 hPa 0,0 l/m 2,0 km/h (1 Bft) SO 144 0 min 0,000 mm 0,0 UV-I 0 W/m 0,7 C 1,3 C 3,2 km/h (1 Bft) 99,15 %
27.12.2015 19:05 1,2 C 96 % 1033,0 hPa 0,0 l/m 2,7 km/h (1 Bft) O 87 0 min 0,000 mm 0,0 UV-I 0 W/m 0,6 C 1,2 C 4,8 km/h (1 Bft) 98,31 %
27.12.2015 19:10 1,5 C 96 % 1033,1 hPa 0,0 l/m 3,1 km/h (1 Bft) NO 40 0 min 0,000 mm 0,0 UV-I 0 W/m 0,9 C 1,5 C 4,8 km/h (1 Bft) 99,15 %
27.12.2015 19:15 1,3 C 95 % 1033,1 hPa 0,0 l/m 3,4 km/h (1 Bft) SO 146 0 min 0,000 mm 0,0 UV-I 0 W/m 0,6 C 1,3 C 6,4 km/h (2 Bft) 95,76 %
27.12.2015 19:20 1,1 C 95 % 1033,1 hPa 0,0 l/m 1,2 km/h (1 Bft) SO 146 0 min 0,000 mm 0,0 UV-I 0 W/m 0,4 C 1,1 C 4,8 km/h (1 Bft) 94,92 %
27.12.2015 19:25 0,9 C 95 % 1033,2 hPa 0,0 l/m 0,6 km/h (0 Bft) SO 146 0 min 0,000 mm 0,0 UV-I 0 W/m 0,2 C 0,9 C 1,6 km/h (1 Bft) 95,73 %
27.12.2015 19:30 0,9 C 96 % 1033,3 hPa 0,0 l/m 0,9 km/h (0 Bft) SO 146 0 min 0,000 mm 0,0 UV-I 0 W/m 0,3 C 0,9 C 3,2 km/h (1 Bft) 95,76 %
27.12.2015 19:35 0,7 C 95 % 1033,3 hPa 0,0 l/m 1,6 km/h (1 Bft) SO 146 0 min 0,000 mm 0,0 UV-I 0 W/m -0,0 C 0,7 C 3,2 km/h (1 Bft) 97,32 %
27.12.2015 19:40 0,8 C 96 % 1033,4 hPa 0,0 l/m 0,7 km/h (0 Bft) SO 146 0 min 0,000 mm 0,0 UV-I 0 W/m 0,2 C 0,8 C 3,2 km/h (1 Bft) 96,58 %
27.12.2015 19:45 0,8 C 96 % 1033,4 hPa 0,0 l/m 1,9 km/h (1 Bft) SO 146 0 min 0,000 mm 0,0 UV-I 0 W/m 0,2 C 0,8 C 3,2 km/h (1 Bft) 96,61 %
27.12.2015 19:51 0,8 C 96 % 1033,4 hPa 0,0 l/m 1,4 km/h (1 Bft) SO 146 0 min 0,000 mm 0,0 UV-I 0 W/m 0,2 C 0,8 C 3,2 km/h (1 Bft) 97,92 %
27.12.2015 19:55 0,9 C 96 % 1033,5 hPa 0,0 l/m 1,0 km/h (0 Bft) SO 146 0 min 0,000 mm 0,0 UV-I 0 W/m 0,3 C 0,9 C 1,6 km/h (1 Bft) 100,00 %
27.12.2015 20:00 1,1 C 96 % 1033,5 hPa 0,0 l/m 0,1 km/h (0 Bft) SO 146 0 min 0,000 mm 0,0 UV-I 0 W/m 0,5 C 1,1 C 1,6 km/h (1 Bft) 98,31 %
27.12.2015 20:05 0,8 C 95 % 1033,5 hPa 0,0 l/m 1,0 km/h (0 Bft) SO 146 0 min 0,000 mm 0,0 UV-I 0 W/m 0,1 C 0,8 C 3,2 km/h (1 Bft) 96,58 %
27.12.2015 20:10 0,7 C 96 % 1033,6 hPa 0,0 l/m 0,9 km/h (0 Bft) SO 146 0 min 0,000 mm 0,0 UV-I 0 W/m 0,1 C 0,7 C 3,2 km/h (1 Bft) 100,00 %
27.12.2015 20:16 1,0 C 97 % 1033,6 hPa 0,0 l/m 1,0 km/h (0 Bft) SO 146 0 min 0,000 mm 0,0 UV-I 0 W/m 0,6 C 1,0 C 3,2 km/h (1 Bft) 100,00 %
27.12.2015 20:20 0,8 C 96 % 1033,6 hPa 0,0 l/m 2,9 km/h (1 Bft) S 182 0 min 0,000 mm 0,0 UV-I 0 W/m 0,2 C 0,8 C 4,8 km/h (1 Bft) 98,94 %
27.12.2015 20:25 0,9 C 97 % 1033,6 hPa 0,0 l/m 4,8 km/h (1 Bft) S 186 0 min 0,000 mm 0,0 UV-I 0 W/m 0,5 C 0,9 C 6,4 km/h (2 Bft) 99,15 %
27.12.2015 20:30 0,8 C 96 % 1033,5 hPa 0,0 l/m 4,0 km/h (1 Bft) S 185 0 min 0,000 mm 0,0 UV-I 0 W/m 0,2 C 0,8 C 4,8 km/h (1 Bft) 98,33 %
27.12.2015 20:35 0,9 C 96 % 1033,5 hPa 0,0 l/m 4,1 km/h (1 Bft) S 185 0 min 0,000 mm 0,0 UV-I 0 W/m 0,3 C 0,9 C 6,4 km/h (2 Bft) 99,08 %
27.12.2015 20:40 0,8 C 96 % 1033,4 hPa 0,0 l/m 4,9 km/h (1 Bft) S-SW 203 0 min 0,000 mm 0,0 UV-I 0 W/m 0,2 C 0,8 C 6,4 km/h (2 Bft) 100,00 %
27.12.2015 20:45 0,7 C 96 % 1033,5 hPa 0,0 l/m 3,8 km/h (1 Bft) S-SW 203 0 min 0,000 mm 0,0 UV-I 0 W/m 0,1 C 0,7 C 4,8 km/h (1 Bft) 100,00 %
27.12.2015 20:50 0,8 C 97 % 1033,7 hPa 0,0 l/m 1,4 km/h (1 Bft) S-SW 203 0 min 0,000 mm 0,0 UV-I 0 W/m 0,4 C 0,8 C 3,2 km/h (1 Bft) 100,00 %
27.12.2015 20:55 0,9 C 97 % 1033,8 hPa 0,0 l/m 2,8 km/h (1 Bft) NO 55 0 min 0,000 mm 0,0 UV-I 0 W/m 0,5 C 0,9 C 6,4 km/h (2 Bft) 99,15 %
27.12.2015 21:00 0,9 C 96 % 1033,7 hPa 0,0 l/m 2,5 km/h (1 Bft) O-SO 109 0 min 0,000 mm 0,0 UV-I 0 W/m 0,3 C 0,9 C 6,4 km/h (2 Bft) 100,00 %
27.12.2015 21:05 0,4 C 96 % 1033,7 hPa 0,0 l/m 3,9 km/h (1 Bft) O-SO 109 0 min 0,000 mm 0,0 UV-I 0 W/m -0,2 C 0,4 C 4,8 km/h (1 Bft) 100,00 %
27.12.2015 21:10 0,4 C 96 % 1033,7 hPa 0,0 l/m 1,2 km/h (1 Bft) O-SO 118 0 min 0,000 mm 0,0 UV-I 0 W/m -0,2 C 0,4 C 3,2 km/h (1 Bft) 100,00 %
27.12.2015 21:15 0,3 C 96 % 1033,7 hPa 0,0 l/m 3,2 km/h (1 Bft) S 176 0 min 0,000 mm 0,0 UV-I 0 W/m -0,3 C 0,3 C 4,8 km/h (1 Bft) 97,44 %
27.12.2015 21:20 0,4 C 97 % 1033,6 hPa 0,0 l/m 1,1 km/h (1 Bft) S 173 0 min 0,000 mm 0,0 UV-I 0 W/m -0,0 C 0,4 C 3,2 km/h (1 Bft) 99,17 %
27.12.2015 21:25 0,6 C 97 % 1033,7 hPa 0,0 l/m 0,9 km/h (0 Bft) S-SO 165 0 min 0,000 mm 0,0 UV-I 0 W/m 0,2 C 0,6 C 4,8 km/h (1 Bft) 97,44 %
27.12.2015 21:30 0,8 C 97 % 1033,6 hPa 0,0 l/m 0,7 km/h (0 Bft) S-SO 165 0 min 0,000 mm 0,0 UV-I 0 W/m 0,4 C 0,8 C 3,2 km/h (1 Bft) 98,31 %
27.12.2015 21:35 0,6 C 97 % 1033,7 hPa 0,0 l/m 0,6 km/h (0 Bft) S-SO 165 0 min 0,000 mm 0,0 UV-I 0 W/m 0,2 C 0,6 C 3,2 km/h (1 Bft) 96,61 %
27.12.2015 21:40 0,4 C 97 % 1033,7 hPa 0,0 l/m 0,1 km/h (0 Bft) S-SO 165 0 min 0,000 mm 0,0 UV-I 0 W/m -0,0 C 0,4 C 1,6 km/h (1 Bft) 97,30 %
27.12.2015 21:45 0,1 C 96 % 1033,7 hPa 0,0 l/m 0,0 km/h (0 Bft) S-SO 157 0 min 0,000 mm 0,0 UV-I 0 W/m -0,5 C 0,1 C 1,6 km/h (1 Bft) 99,12 %
27.12.2015 21:54 0,3 C 97 % 1033,9 hPa 0,0 l/m 0,0 km/h (0 Bft) S-SO 165 0 min 0,000 mm 0,0 UV-I 0 W/m -0,1 C 0,3 C 0,0 km/h (0 Bft) 95,93 %
27.12.2015 22:00 0,0 C 96 % 1034,0 hPa 0,0 l/m 1,2 km/h (1 Bft) S-SO 165 0 min 0,000 mm 0,0 UV-I 0 W/m -0,6 C 0,0 C 3,2 km/h (1 Bft) 96,03 %
27.12.2015 22:05 -0,1 C 97 % 1033,9 hPa 0,0 l/m 4,7 km/h (1 Bft) S 188 0 min 0,000 mm 0,0 UV-I 0 W/m -0,5 C -0,1 C 6,4 km/h (2 Bft) 97,89 %
27.12.2015 22:10 0,4 C 97 % 1033,8 hPa 0,0 l/m 6,7 km/h (2 Bft) S-SO 168 0 min 0,000 mm 0,0 UV-I 0 W/m -0,0 C 0,1 C 9,7 km/h (2 Bft) 96,97 %
27.12.2015 22:15 0,6 C 97 % 1033,8 hPa 0,0 l/m 6,9 km/h (2 Bft) S 170 0 min 0,000 mm 0,0 UV-I 0 W/m 0,2 C 0,1 C 9,7 km/h (2 Bft) 99,13 %
27.12.2015 22:20 1,1 C 98 % 1033,8 hPa 0,0 l/m 6,1 km/h (2 Bft) S-SO 166 0 min 0,000 mm 0,0 UV-I 0 W/m 0,8 C 1,1 C 8,0 km/h (2 Bft) 97,62 %
27.12.2015 22:25 1,2 C 97 % 1033,7 hPa 0,0 l/m 5,7 km/h (1 Bft) S 170 0 min 0,000 mm 0,0 UV-I 0 W/m 0,8 C 1,2 C 8,0 km/h (2 Bft) 99,11 %
27.12.2015 22:30 1,2 C 96 % 1033,8 hPa 0,0 l/m 2,9 km/h (1 Bft) S 169 0 min 0,000 mm 0,0 UV-I 0 W/m 0,6 C 1,2 C 6,4 km/h (2 Bft) 99,17 %
27.12.2015 22:35 0,7 C 95 % 1033,7 hPa 0,0 l/m 1,3 km/h (1 Bft) S 169 0 min 0,000 mm 0,0 UV-I 0 W/m -0,0 C 0,7 C 3,2 km/h (1 Bft) 100,00 %
27.12.2015 22:40 0,7 C 96 % 1033,8 hPa 0,0 l/m 0,9 km/h (0 Bft) S 169 0 min 0,000 mm 0,0 UV-I 0 W/m 0,1 C 0,7 C 1,6 km/h (1 Bft) 99,17 %
27.12.2015 22:45 1,3 C 96 % 1033,8 hPa 0,0 l/m 1,3 km/h (1 Bft) S-SO 166 0 min 0,000 mm 0,0 UV-I 0 W/m 0,7 C 1,3 C 4,8 km/h (1 Bft) 99,12 %
27.12.2015 22:50 1,3 C 95 % 1033,9 hPa 0,0 l/m 0,8 km/h (0 Bft) S-SO 166 0 min 0,000 mm 0,0 UV-I 0 W/m 0,6 C 1,3 C 4,8 km/h (1 Bft) 100,00 %
27.12.2015 22:55 1,1 C 94 % 1033,9 hPa 0,0 l/m 3,2 km/h (1 Bft) S-SO 166 0 min 0,000 mm 0,0 UV-I 0 W/m 0,2 C 1,1 C 4,8 km/h (1 Bft) 100,00 %
27.12.2015 23:00 0,2 C 94 % 1033,9 hPa 0,0 l/m 4,8 km/h (1 Bft) S 171 0 min 0,000 mm 0,0 UV-I 0 W/m -0,6 C 0,2 C 8,0 km/h (2 Bft) 99,22 %
27.12.2015 23:05 0,6 C 96 % 1033,9 hPa 0,0 l/m 6,4 km/h (2 Bft) S-SO 165 0 min 0,000 mm 0,0 UV-I 0 W/m 0,0 C 0,6 C 8,0 km/h (2 Bft) 99,15 %
27.12.2015 23:10 0,9 C 97 % 1033,7 hPa 0,0 l/m 7,2 km/h (2 Bft) S 175 0 min 0,000 mm 0,0 UV-I 0 W/m 0,5 C 0,1 C 8,0 km/h (2 Bft) 100,00 %
27.12.2015 23:15 1,1 C 96 % 1033,7 hPa 0,0 l/m 7,6 km/h (2 Bft) S 171 0 min 0,000 mm 0,0 UV-I 0 W/m 0,5 C -0,1 C 11,3 km/h (2 Bft) 100,00 %
27.12.2015 23:20 1,0 C 95 % 1033,7 hPa 0,0 l/m 6,5 km/h (2 Bft) S-SW 200 0 min 0,000 mm 0,0 UV-I 0 W/m 0,3 C 0,9 C 9,7 km/h (2 Bft) 97,39 %
27.12.2015 23:25 0,4 C 94 % 1033,7 hPa 0,0 l/m 5,9 km/h (2 Bft) S-SW 202 0 min 0,000 mm 0,0 UV-I 0 W/m -0,5 C 0,4 C 8,0 km/h (2 Bft) 100,00 %
27.12.2015 23:30 0,0 C 95 % 1033,8 hPa 0,0 l/m 6,2 km/h (2 Bft) S-SW 205 0 min 0,000 mm 0,0 UV-I 0 W/m -0,7 C 0,0 C 8,0 km/h (2 Bft) 98,35 %
27.12.2015 23:35 0,2 C 96 % 1033,8 hPa 0,0 l/m 6,5 km/h (2 Bft) S-SW 198 0 min 0,000 mm 0,0 UV-I 0 W/m -0,4 C 0,1 C 8,0 km/h (2 Bft) 99,17 %
27.12.2015 23:40 0,7 C 97 % 1033,7 hPa 0,0 l/m 4,1 km/h (1 Bft) S-SW 199 0 min 0,000 mm 0,0 UV-I 0 W/m 0,3 C 0,7 C 6,4 km/h (2 Bft) 98,33 %
27.12.2015 23:45 0,8 C 95 % 1033,8 hPa 0,0 l/m 4,8 km/h (1 Bft) SW 225 0 min 0,000 mm 0,0 UV-I 0 W/m 0,1 C 0,8 C 6,4 km/h (2 Bft) 100,00 %
27.12.2015 23:50 1,2 C 95 % 1033,9 hPa 0,0 l/m 3,6 km/h (1 Bft) SW 225 0 min 0,000 mm 0,0 UV-I 0 W/m 0,5 C 1,2 C 6,4 km/h (2 Bft) 98,15 %
27.12.2015 23:55 0,9 C 93 % 1034,0 hPa 0,0 l/m 2,2 km/h (1 Bft) N-NO 13 0 min 0,000 mm 0,0 UV-I 0 W/m -0,1 C 0,9 C 4,8 km/h (1 Bft) 96,06 %
_ Min-Zeit 08:35 14:15 01:25 - 01:55 - - - - - - 08:35 08:35 01:55 00:55
Minimum _ -2,1 C 74 % 1031,4 hPa - 0,0 km/h (0 Bft) - - - - - - -2,5 C -2,1 C 0,0 km/h (0 Bft) 94,02 %
_ Max-Zeit 14:55 05:35 22:00 09:45 23:15 - - 08:45 12:00 11:55 12:00 13:50 14:20 23:15 00:10
Maximum _ 8,3 C 98 % 1034,0 hPa 0,2 l/m 7,6 km/h
S (2 Bft)
- - 5 min 0,102 mm 0,7 UV-I 292 W/m 4,7 C 8,2 C 11,3 km/h
S (2 Bft)
100,00 %
Durchschnitt _ 1,6 C 93 % 1032,5 hPa #0,2 l/m 2,0 km/h (1 Bft) NO - #7:15 h #0,533 mm 0,6 UV-I 163 W/m 0,5 C 1,6 C 3,9 km/h (1 Bft) 98,37 %